Simultaneous Nadir Overpasses (SNOs) Predictions

Prediction of SNOs between GOES-15 and METOP-A Satellite Orbit:

Table of predicted SNOs for the next 14.0 days since TLE Epoch: 8/28/2020
Index Date Time (GOES-15) GOES-15 Lat,Lon METOP-A Lat,Lon Distance(km) Time Diff (sec)
1 08/29/2020 04:55:01 0.02,-127.67 0.50,-125.55 242.20 80
2 08/30/2020 17:13:53 -0.01,-127.70 0.52,-130.15 278.45 80
3 08/31/2020 16:55:54 -0.02,-127.74 -0.56,-125.16 292.74 80
4 09/02/2020 05:14:56 0.01,-127.83 -0.41,-129.81 225.31 80
5 09/03/2020 04:51:36 0.02,-127.86 0.67,-124.83 345.29 80
6 09/04/2020 17:10:29 -0.02,-127.89 0.34,-129.43 176.01 80
7 09/05/2020 16:52:30 -0.02,-127.92 -0.79,-124.46 394.94 80
8 09/07/2020 05:11:32 0.01,-128.01 -0.23,-129.09 123.14 80
9 09/08/2020 04:48:13 0.02,-128.04 0.91,-124.12 446.95 80
10 09/09/2020 17:07:05 -0.01,-128.05 0.11,-128.72 75.85 80
11 09/10/2020 16:49:06 -0.02,-128.08 -0.97,-123.74 494.32 80
